Temp
26 26 26 25 22 21 25 27 27 24 24 23 22 20 19 19 20 17 16 17 18 18 18 18 18 18 18 18 18 18 18 18 18 17 17 17 16 16 16 16 16 16 16 16 16 16 16 16 17
27 26 26 26 22 23 23 25 24 25 24 23 22 21 20 19 19 18 17 16 18 17 17 17 17 17 17 17 17 17 17 17 17 17 17 17 16 16 16 16 16 16 16 16 16 16 16 16 16
27 27 26 22 22 24 24 25 24 23 25 23 21 20 19 19 18 17 15 16 16 16 16 16 16 17 17 16 16 16 16 16 16 16 16 16 16 16 16 16 16 16 16 16 16 15 15 15 16
27 27 28 23 23 26 25 25 24 23 21 21 21 19 17 17 15 16 16 16 15 15 15 15 16 16 16 16 15 15 15 15 15 15 15 15 15 15 15 15 16 16 16 16 16 16 15 15 15
28 28 24 25 25 24 24 25 23 23 22 20 19 17 17 17 17 16 16 15 14 14 14 14 14 15 15 15 15 15 15 15 14 14 14 14 13 13 14 14 14 14 14 14 15 15 16 16 15
28 28 22 24 23 23 24 25 22 21 20 20 19 18 17 17 17 16 15 15 15 14 14 14 14 14 14 14 13 13 13 14 14 14 14 14 13 13 12 12 12 12 12 13 13 13 14 14 15
26 23 24 23 22 22 22 23 23 22 21 20 19 18 17 17 16 16 15 15 15 15 15 15 14 14 13 13 13 13 13 13 15 15 14 14 14 13 12 12 12 11 12 12 12 12 12 13 13
30 24 24 23 21 20 22 21 22 21 21 21 21 18 17 17 17 16 15 14 14 15 15 15 15 15 14 13 13 13 13 12 11 11 12 13 12 12 13 12 12 11 11 11 11 10 10 11 12
31 22 21 24 22 21 21 21 21 20 20 20 20 19 18 17 17 16 15 14 13 13 13 13 14 13 13 12 11 10 10 10 9 9 9 9 10 10 10 10 10 10 10 10 10 9 9 9 10
26 20 25 25 24 22 22 21 21 20 19 19 18 18 18 17 16 16 15 14 13 12 11 12 11 11 11 10 10 9 9 9 9 8 8 8 8 8 8 8 9 9 9 9 9 9 9 9 10
27 23 23 23 23 23 21 20 20 19 18 18 17 17 17 17 16 15 14 13 12 12 11 11 10 10 10 9 9 8 8 8 8 7 7 7 7 7 7 7 7 7 8 8 8 8 8 8 8
23 23 23 22 22 21 20 20 19 19 18 18 17 17 16 16 15 15 13 13 12 11 10 10 10 10 10 9 8 7 7 7 7 6 6 6 6 6 6 6 5 6 6 7 7 7 7 7 8
23 23 22 22 21 20 20 19 18 18 18 18 17 16 15 15 14 13 13 12 11 10 9 9 10 9 8 7 7 7 6 6 5 5 5 5 5 5 4 4 4 5 5 5 5 5 6 6 6
24 23 22 22 21 20 19 19 19 19 18 17 16 15 14 14 13 13 12 11 10 9 9 8 8 8 7 6 5 5 5 5 4 4 4 5 4 4 4 2 2 2 3 3 3 2 4 4 4
24 21 21 20 20 20 20 17 17 19 18 17 15 15 14 13 12 12 10 10 9 8 8 8 8 7 6 5 4 4 4 3 3 3 4 3 3 3 2 2 1 -1 0 1 1 1 0 2 2
23 21 19 20 21 20 19 16 19 19 18 16 15 14 13 12 12 11 10 9 8 8 7 7 7 6 6 4 4 3 3 2 2 2 2 2 1 1 1 0 -1 -3 -4 -4 -4 -4 -3 -2 -3
21 19 20 20 22 21 19 16 19 20 18 17 15 14 13 12 11 10 9 9 8 7 6 5 5 5 5 5 4 4 2 1 1 1 0 0 -1 -0 -1 -3 -4 -5 -5 -5 -5 -6 -6 -5 -5
23 20 19 20 22 21 17 16 18 20 18 17 15 14 13 12 11 10 9 9 8 6 4 4 4 5 4 4 3 2 1 -0 -0 -1 -1 -1 -2 -2 -6 -5 -5 -5 -5 -5 -6 -6 -6 -5 -5
24 21 19 20 22 20 18 16 16 19 18 17 15 14 13 12 11 10 9 8 6 5 4 3 3 3 3 2 1 1 -1 -2 -2 -3 -3 -3 -4 -4 -6 -5 -5 -6 -6 -6 -6 -6 -6 -5 -5
23 20 20 20 21 20 17 16 16 18 17 17 14 13 13 12 11 9 8 7 6 5 3 3 1 1 1 0 0 -1 -2 -2 -3 -3 -3 -3 -4 -4 -5 -6 -6 -6 -6 -6 -6 -7 -6 -6 -6
22 21 22 20 21 21 18 16 17 17 16 15 14 13 12 11 10 9 8 7 5 4 3 1 1 0 -2 -2 -2 -2 -3 -3 -3 -4 -4 -4 -5 -5 -5 -5 -6 -7 -7 -7 -7 -7 -7 -7 -6
21 22 22 22 19 17 18 15 16 15 14 15 13 13 12 11 10 9 7 6 4 3 3 1 -0 -1 -2 -2 -3 -3 -4 -4 -4 -4 -5 -5 -6 -6 -6 -6 -7 -7 -8 -7 -7 -8 -7 -7 -8
21 22 21 22 19 20 19 17 16 15 14 13 12 12 11 10 9 8 6 5 4 3 2 1 -1 -2 -2 -3 -4 -4 -4 -4 -4 -4 -5 -6 -6 -7 -7 -7 -7 -8 -8 -8 -7 -8 -8 -8 -8
22 21 20 20 18 16 18 18 15 15 16 13 12 12 11 10 9 7 5 4 3 3 2 -0 -2 -2 -2 -3 -4 -4 -4 -5 -5 -5 -6 -6 -7 -7 -7 -8 -8 -8 -8 -8 -8 -8 -8 -8 -8
21 19 16 16 16 16 21 17 14 13 16 13 11 11 10 9 8 7 5 4 3 2 0 -1 -2 -2 -3 -4 -4 -5 -5 -5 -5 -6 -6 -7 -7 -7 -8 -8 -8 -9 -9 -9 -9 -8 -8 -8 -8
20 19 15 18 16 17 19 15 11 13 13 13 12 11 10 9 8 6 4 3 2 0 -1 -2 -2 -3 -4 -4 -4 -4 -5 -6 -6 -6 -7 -7 -7 -8 -8 -8 -8 -9 -9 -9 -9 -9 -8 -8 -8
20 18 20 18 18 16 14 13 13 13 12 12 11 11 10 8 6 5 3 3 1 -0 -2 -2 -2 -3 -3 -4 -4 -5 -5 -6 -6 -7 -7 -7 -8 -8 -8 -8 -8 -9 -9 -9 -9 -8 -9 -8 -9
20 20 16 15 16 17 17 14 12 12 12 12 10 10 9 7 5 4 3 2 0 -1 -2 -2 -3 -3 -4 -4 -4 -5 -6 -6 -6 -7 -7 -7 -8 -8 -8 -8 -8 -9 -9 -8 -8 -8 -8 -8 -9
18 18 18 17 15 14 13 13 13 13 13 11 10 9 8 6 5 3 2 0 -1 -1 -2 -2 -3 -3 -4 -4 -5 -5 -6 -6 -7 -7 -8 -8 -8 -8 -8 -8 -8 -9 -9 -8 -8 -8 -8 -8 -9
19 19 18 14 15 15 12 11 12 11 12 11 10 8 7 6 4 2 1 0 -1 -2 -2 -2 -3 -4 -4 -5 -5 -6 -6 -7 -7 -8 -8 -8 -8 -8 -8 -8 -8 -9 -9 -8 -8 -8 -8 -8 -9
Height
1517 1517 1516 1514 1525 1526 1528 1521 1508 1520 1526 1531 1529 1535 1551 1554 1556 1575 1573 1567 1563 1563 1562 1560 1559 1557 1556 1554 1553 1552 1551 1550 1549 1548 1547 1546 1545 1544 1543 1543 1542 1542 1541 1540 1539 1537 1536 1535 1535
1518 1517 1516 1517 1534 1543 1540 1522 1525 1524 1533 1532 1537 1547 1551 1564 1564 1569 1567 1569 1565 1563 1562 1561 1560 1558 1557 1556 1555 1554 1552 1550 1549 1549 1548 1546 1545 1544 1544 1543 1541 1540 1540 1538 1537 1536 1535 1534 1533
1518 1518 1519 1522 1535 1540 1538 1527 1532 1530 1531 1533 1544 1552 1560 1567 1568 1573 1573 1571 1567 1565 1564 1563 1561 1559 1558 1556 1555 1554 1552 1551 1549 1548 1547 1546 1545 1544 1543 1542 1541 1539 1538 1537 1535 1534 1533 1532 1531
1517 1519 1520 1532 1535 1523 1525 1527 1528 1531 1538 1541 1540 1560 1569 1571 1573 1576 1574 1571 1570 1569 1567 1566 1564 1561 1559 1557 1556 1554 1553 1551 1548 1547 1546 1544 1543 1542 1540 1539 1537 1537 1535 1534 1532 1531 1530 1529 1528
1516 1519 1528 1535 1530 1526 1525 1528 1527 1533 1542 1548 1546 1573 1574 1577 1577 1577 1576 1574 1572 1571 1570 1568 1567 1564 1563 1561 1559 1557 1554 1551 1549 1547 1545 1543 1541 1539 1538 1536 1535 1533 1531 1529 1528 1526 1525 1525 1525
1518 1516 1537 1545 1537 1532 1531 1531 1533 1541 1549 1556 1559 1568 1577 1580 1578 1579 1578 1576 1575 1572 1571 1569 1567 1567 1566 1563 1561 1558 1554 1551 1550 1548 1546 1544 1540 1538 1534 1533 1530 1528 1526 1524 1523 1522 1522 1519 1518
1518 1523 1531 1534 1538 1539 1542 1537 1540 1548 1554 1560 1567 1569 1581 1581 1581 1580 1579 1578 1577 1575 1573 1571 1569 1567 1566 1564 1561 1559 1555 1551 1549 1546 1544 1542 1537 1535 1533 1530 1527 1525 1523 1520 1518 1516 1514 1514 1513
1512 1517 1526 1536 1544 1555 1545 1542 1549 1554 1563 1564 1563 1577 1581 1584 1583 1581 1580 1579 1578 1577 1575 1573 1571 1569 1566 1565 1562 1558 1556 1552 1547 1543 1541 1538 1534 1533 1531 1528 1525 1522 1520 1516 1515 1510 1508 1505 1504
1511 1529 1545 1538 1539 1551 1545 1548 1559 1563 1565 1568 1572 1578 1583 1584 1583 1582 1582 1581 1580 1577 1575 1574 1572 1569 1566 1564 1561 1558 1555 1552 1547 1541 1538 1535 1532 1530 1527 1524 1520 1518 1515 1509 1510 1507 1502 1499 1497
1512 1536 1533 1526 1533 1542 1548 1551 1560 1565 1572 1576 1578 1582 1584 1585 1585 1584 1583 1583 1582 1580 1575 1573 1572 1569 1565 1563 1561 1557 1555 1551 1547 1539 1534 1533 1531 1527 1524 1520 1516 1513 1506 1507 1504 1502 1499 1496 1492
1521 1535 1534 1537 1540 1543 1551 1558 1564 1566 1577 1581 1583 1585 1586 1586 1587 1587 1586 1584 1583 1582 1578 1574 1572 1569 1565 1562 1560 1556 1553 1551 1547 1538 1534 1531 1528 1525 1522 1517 1512 1507 1504 1500 1498 1494 1492 1490 1487
1532 1537 1537 1545 1545 1547 1555 1560 1569 1573 1580 1584 1585 1588 1589 1590 1591 1590 1588 1587 1584 1582 1579 1575 1570 1569 1565 1562 1559 1556 1552 1550 1544 1539 1534 1530 1527 1524 1521 1517 1511 1506 1501 1496 1493 1489 1485 1485 1484
1536 1543 1545 1548 1550 1554 1559 1567 1570 1578 1583 1585 1587 1589 1590 1592 1592 1592 1591 1588 1585 1583 1580 1574 1572 1569 1566 1562 1559 1556 1553 1551 1545 1538 1533 1528 1524 1522 1518 1514 1509 1504 1499 1494 1489 1485 1480 1477 1476
1541 1544 1549 1552 1555 1562 1563 1572 1571 1582 1584 1586 1588 1591 1592 1593 1594 1593 1591 1589 1586 1583 1580 1577 1573 1570 1566 1563 1560 1556 1553 1551 1543 1539 1534 1529 1524 1519 1515 1509 1504 1499 1495 1490 1486 1481 1476 1472 1468
1540 1549 1552 1555 1558 1564 1565 1578 1579 1581 1583 1586 1588 1591 1593 1594 1595 1594 1592 1589 1586 1583 1581 1576 1574 1570 1565 1562 1558 1556 1554 1549 1543 1540 1534 1529 1523 1517 1512 1505 1501 1496 1491 1487 1482 1477 1471 1467 1462
1544 1550 1564 1557 1557 1562 1559 1584 1578 1580 1582 1586 1588 1590 1592 1594 1595 1594 1592 1589 1587 1584 1581 1577 1574 1570 1566 1562 1558 1555 1552 1549 1543 1538 1532 1527 1523 1517 1510 1504 1500 1495 1490 1485 1479 1474 1467 1462 1457
1547 1562 1557 1560 1551 1553 1561 1580 1576 1578 1581 1585 1587 1590 1592 1594 1594 1593 1591 1589 1587 1584 1581 1575 1572 1569 1566 1562 1558 1555 1550 1546 1542 1537 1531 1527 1522 1517 1510 1505 1500 1495 1490 1485 1479 1474 1468 1461 1455
1549 1557 1562 1561 1554 1548 1564 1571 1572 1576 1578 1583 1586 1589 1592 1593 1593 1592 1591 1589 1587 1584 1580 1576 1573 1569 1565 1562 1558 1554 1550 1545 1540 1536 1533 1528 1522 1516 1510 1506 1501 1495 1490 1485 1479 1473 1467 1461 1453
1535 1548 1562 1558 1552 1555 1565 1570 1572 1573 1577 1581 1585 1588 1591 1593 1593 1592 1590 1588 1585 1583 1581 1576 1572 1568 1563 1558 1553 1550 1548 1545 1541 1535 1532 1528 1522 1516 1511 1506 1501 1496 1491 1486 1480 1472 1465 1459 1452
1539 1553 1558 1554 1551 1556 1566 1571 1569 1570 1574 1578 1583 1586 1589 1592 1593 1591 1591 1587 1584 1583 1580 1576 1572 1568 1563 1558 1555 1551 1547 1544 1542 1536 1531 1528 1524 1517 1511 1507 1501 1497 1491 1485 1479 1472 1465 1460 1454
1546 1552 1551 1555 1553 1554 1562 1573 1571 1571 1574 1579 1582 1584 1588 1590 1592 1591 1590 1587 1584 1582 1579 1576 1572 1568 1564 1561 1556 1552 1549 1545 1541 1538 1531 1527 1526 1519 1512 1507 1502 1497 1491 1485 1479 1473 1467 1459 1454
1554 1546 1547 1549 1561 1576 1557 1589 1571 1571 1574 1577 1580 1583 1587 1589 1591 1591 1589 1586 1584 1581 1579 1576 1572 1567 1564 1560 1556 1552 1546 1543 1538 1536 1533 1528 1524 1519 1513 1507 1501 1497 1491 1484 1478 1473 1468 1462 1455
1552 1547 1550 1548 1556 1556 1556 1570 1567 1567 1576 1577 1580 1583 1587 1590 1591 1591 1588 1585 1584 1582 1579 1576 1572 1567 1564 1560 1555 1553 1550 1546 1541 1534 1531 1528 1523 1518 1514 1508 1501 1496 1490 1484 1478 1473 1468 1463 1458
1544 1549 1550 1550 1560 1578 1551 1560 1576 1570 1565 1575 1580 1583 1587 1589 1591 1590 1587 1585 1583 1581 1578 1575 1572 1567 1564 1558 1555 1554 1550 1546 1542 1534 1530 1527 1523 1518 1513 1508 1502 1497 1490 1483 1477 1473 1468 1463 1457
1547 1556 1579 1582 1579 1577 1533 1561 1578 1572 1561 1572 1579 1584 1587 1589 1590 1589 1586 1584 1582 1580 1577 1573 1570 1566 1563 1559 1554 1551 1548 1545 1542 1536 1531 1527 1522 1518 1513 1508 1502 1496 1490 1482 1476 1471 1467 1463 1457
1548 1553 1580 1579 1581 1569 1544 1576 1586 1575 1574 1577 1581 1584 1587 1588 1587 1587 1585 1584 1582 1580 1577 1573 1570 1567 1564 1561 1556 1552 1547 1543 1540 1538 1533 1528 1523 1519 1513 1508 1502 1495 1489 1481 1475 1470 1466 1462 1457
1549 1558 1548 1560 1557 1570 1574 1579 1579 1575 1576 1578 1581 1583 1586 1586 1586 1585 1584 1583 1581 1580 1577 1574 1571 1569 1566 1563 1558 1551 1546 1542 1539 1536 1534 1529 1524 1519 1513 1507 1501 1495 1488 1480 1474 1470 1465 1461 1456
1546 1547 1566 1566 1578 1574 1560 1573 1575 1575 1574 1576 1579 1581 1584 1584 1584 1584 1583 1583 1581 1580 1577 1575 1571 1569 1567 1564 1560 1553 1545 1541 1539 1536 1533 1530 1525 1519 1514 1507 1500 1494 1488 1481 1475 1470 1465 1460 1455
1551 1553 1552 1557 1566 1580 1585 1574 1557 1561 1565 1570 1575 1578 1580 1581 1583 1583 1583 1582 1581 1580 1578 1575 1572 1569 1565 1563 1559 1554 1545 1541 1537 1535 1532 1529 1525 1520 1514 1507 1500 1494 1488 1481 1476 1471 1465 1459 1455
1543 1547 1551 1573 1571 1568 1577 1579 1558 1558 1562 1568 1574 1576 1579 1581 1582 1583 1583 1582 1581 1579 1577 1574 1571 1569 1564 1562 1557 1554 1547 1541 1537 1534 1532 1528 1525 1520 1514 1507 1501 1495 1489 1481 1476 1471 1466 1460 1455
Wind_Speed
19 8 7 6 4 5 6 4 6 20 19 32 34 36 26 28 12 8 13 14 14 12 12 11 11 12 13 12 12 12 11 10 10 9 9 9 9 10 11 12 12 12 12 11 10 10 10 10 11
12 5 6 5 3 6 6 20 23 24 29 31 31 26 31 20 21 26 20 19 16 16 9 12 12 13 13 13 13 13 12 12 12 13 12 12 12 13 13 13 13 13 14 14 14 14 14 14 14
8 3 1 4 3 7 6 14 20 23 21 23 12 22 11 13 25 15 20 21 16 23 22 22 19 17 15 13 12 12 12 11 11 12 13 14 14 15 15 16 16 16 17 17 17 18 18 17 17
11 2 4 3 9 5 10 16 25 17 26 20 28 19 38 20 20 21 10 15 20 28 29 30 30 30 26 22 18 16 14 13 12 12 12 12 13 15 16 17 17 18 18 19 19 20 20 21 20
11 2 2 2 7 16 15 26 32 21 19 25 31 17 31 18 14 14 17 19 25 27 29 29 31 31 29 27 26 23 21 19 18 15 12 11 12 11 13 15 17 19 20 21 21 21 22 23 23
5 2 3 3 14 18 23 28 39 38 39 35 36 30 23 22 27 26 21 21 22 23 23 25 25 28 29 27 26 24 23 22 19 16 14 14 12 11 9 12 12 14 17 19 22 25 25 24 24
10 3 3 9 18 21 17 36 28 30 29 28 31 26 26 27 27 26 26 23 22 19 20 20 22 21 19 19 18 18 19 22 21 17 16 16 13 10 10 10 13 14 16 19 20 22 24 26 26
7 5 11 7 16 13 25 40 30 31 24 20 15 13 17 30 27 27 27 25 21 20 20 19 16 14 13 13 14 17 17 18 23 25 23 20 21 20 19 19 19 19 19 19 17 20 23 25 24
13 5 5 5 12 15 32 32 37 37 38 40 37 33 31 26 21 19 18 19 23 23 22 21 22 19 17 17 18 22 22 21 24 28 29 28 27 26 27 27 26 24 21 20 17 18 18 20 20
8 5 5 6 25 22 32 36 27 29 28 29 31 28 27 27 24 22 21 19 18 20 23 23 24 26 23 22 19 21 24 24 22 29 30 30 32 34 32 32 29 27 28 25 25 24 24 26 27
13 9 13 27 31 38 32 30 33 32 16 25 24 25 22 21 22 26 26 23 20 18 18 23 26 27 24 24 21 25 24 23 24 27 30 31 32 34 36 34 31 31 31 30 30 31 29 29 29
21 27 28 24 34 36 27 36 30 30 27 29 27 25 22 23 24 20 22 20 20 20 22 23 27 28 25 22 17 22 23 22 23 25 26 28 31 34 37 34 33 32 32 33 32 31 32 26 29
19 20 30 33 37 36 37 26 23 28 25 24 24 23 25 24 23 24 18 16 15 18 20 23 27 29 26 19 17 19 23 23 26 25 26 30 34 36 34 32 30 31 31 31 32 33 34 34 28
22 26 23 28 29 25 31 20 21 24 27 27 25 26 23 22 18 21 20 17 16 17 18 20 25 28 24 17 17 19 20 20 21 25 30 32 35 33 34 32 31 33 34 36 34 33 34 36 35
28 12 14 23 27 19 34 11 8 23 23 26 25 22 20 19 19 18 21 18 17 17 19 24 26 24 19 16 16 18 18 18 20 24 29 32 33 35 34 31 34 35 35 35 35 35 36 35 35
7 9 8 9 22 21 12 10 16 22 27 27 25 22 19 17 15 15 12 14 15 17 21 23 22 23 23 18 18 16 13 17 22 25 29 32 36 38 33 33 33 34 34 35 36 32 36 36 37
5 6 6 6 21 8 4 9 18 21 26 26 25 21 19 17 15 11 9 10 16 22 22 19 24 24 24 20 19 16 12 16 22 26 30 36 39 35 31 32 33 34 34 37 38 33 33 35 35
4 8 5 5 2 5 10 7 14 21 24 25 24 22 20 16 14 8 8 13 19 20 18 19 22 24 25 22 21 18 18 19 22 28 31 33 36 33 30 32 30 32 33 38 37 34 33 32 35
6 12 11 4 3 6 12 11 9 21 25 21 24 21 19 18 12 9 10 13 17 18 19 20 23 27 26 27 28 23 22 20 25 28 35 37 38 31 28 31 28 30 32 35 35 34 35 32 34
8 11 5 3 4 5 10 9 9 18 19 23 26 21 16 12 13 10 10 13 15 17 17 19 24 27 27 29 27 25 22 22 23 26 29 35 37 31 31 29 26 28 30 34 36 32 32 32 33
5 5 0 6 5 2 7 3 8 9 27 25 21 19 15 12 9 9 11 13 14 17 19 20 24 26 23 26 28 23 22 24 24 25 30 34 35 36 31 27 25 28 29 31 33 31 29 33 32
3 4 4 1 5 4 7 4 8 12 8 17 22 18 14 11 8 7 6 5 9 16 20 21 22 26 24 24 25 24 23 24 22 25 26 31 35 34 37 30 26 28 34 34 31 27 27 29 31
3 1 4 3 2 1 4 2 5 13 9 10 22 20 15 11 7 7 5 4 9 15 19 17 18 20 25 24 21 23 24 23 24 28 27 28 34 37 38 34 29 29 34 37 30 24 26 26 28
2 3 4 3 2 3 9 9 2 8 10 12 20 21 15 11 8 6 6 5 11 16 19 13 15 19 23 23 20 21 21 21 25 28 29 29 29 32 36 36 36 28 32 37 30 22 25 26 26
4 2 3 1 1 5 5 6 3 9 9 20 21 19 13 9 7 6 2 7 13 17 19 17 16 21 23 22 23 22 23 21 24 28 28 29 29 32 33 35 38 30 30 38 28 21 22 27 27
3 4 4 3 1 4 8 4 2 10 22 24 20 18 14 10 8 5 1 7 12 15 19 20 23 20 23 23 20 22 18 22 24 26 26 27 27 30 31 35 37 30 31 39 23 23 21 23 29
3 2 2 0 4 2 5 4 2 7 10 19 21 16 13 12 8 4 4 10 13 15 15 19 22 21 20 18 18 19 21 20 22 23 23 25 26 28 30 35 34 31 37 36 20 23 24 25 31
3 2 5 3 1 3 1 5 5 11 10 12 17 19 16 12 7 2 7 10 13 14 11 17 19 16 15 17 19 21 20 20 22 21 22 24 25 27 32 32 34 35 40 31 26 25 23 25 28
0 2 1 3 4 4 1 4 7 14 14 12 19 19 15 11 5 1 4 8 12 13 14 13 12 16 15 18 19 22 20 21 21 20 20 23 24 30 31 34 38 38 42 29 25 28 26 24 25
1 0 2 4 5 1 4 5 4 9 19 24 20 18 13 7 2 4 1 6 10 12 10 9 15 15 13 17 19 22 20 21 21 20 19 21 26 27 32 36 37 39 41 29 23 26 25 26 24
Wind_Direction
324 343 5 358 28 63 57 27 99 93 66 82 76 78 70 46 55 81 90 57 33 35 32 41 37 34 33 34 30 27 23 17 9 360 353 345 340 337 336 334 333 329 323 317 310 300 289 284 284
344 29 353 323 77 62 12 74 72 93 107 85 71 68 62 54 72 53 55 47 30 48 58 42 29 25 21 19 18 17 14 11 7 2 355 347 342 335 332 328 324 321 317 314 308 302 296 290 286
21 348 309 127 227 90 67 93 80 61 98 92 75 58 32 89 55 76 65 62 44 52 51 44 33 29 25 22 17 12 8 7 3 357 351 347 343 337 331 325 320 316 312 309 307 304 301 295 290
7 8 263 67 85 45 54 99 100 100 63 104 104 64 63 75 72 81 58 58 63 59 55 52 48 48 47 44 39 34 25 14 5 354 350 342 337 330 325 320 315 313 309 305 302 300 298 295 293
344 253 19 3 86 59 40 90 84 84 91 83 88 98 83 73 80 70 82 76 74 65 57 51 42 38 38 40 38 37 34 29 26 19 8 1 358 351 349 331 319 309 302 297 292 288 287 289 290
298 205 69 188 74 62 43 69 95 94 96 95 90 103 97 86 73 71 79 83 84 79 70 63 61 45 35 32 29 25 23 18 20 22 9 9 3 357 0 5 348 334 327 311 297 294 288 281 278
221 55 278 128 88 64 61 67 70 98 93 90 110 102 115 97 87 76 67 63 64 73 81 78 73 66 52 45 23 22 17 4 355 354 356 0 343 333 336 333 327 333 327 317 314 314 293 285 279
253 102 41 78 93 84 79 67 74 73 90 104 100 109 111 107 94 81 70 55 46 54 64 60 59 44 52 24 22 359 11 11 355 346 344 347 340 348 343 334 329 319 322 323 344 332 323 301 284
283 57 78 131 108 115 93 89 81 87 86 82 87 99 108 103 94 82 73 64 54 33 28 27 29 33 29 27 23 10 5 12 2 349 345 342 339 340 336 337 333 330 327 305 306 317 317 317 308
58 86 54 83 120 113 107 107 107 99 86 80 81 85 88 84 76 70 65 59 47 40 16 11 14 15 13 21 25 16 5 6 3 347 339 342 338 336 343 340 336 329 314 316 310 304 303 302 301
61 86 77 75 102 107 104 95 101 99 87 93 90 84 78 74 70 70 68 61 47 30 11 2 3 5 5 16 23 15 358 3 2 341 343 343 337 338 341 341 340 336 333 328 320 315 308 308 302
77 70 84 84 91 91 90 100 88 92 97 100 94 91 86 76 68 64 62 53 35 24 19 357 353 6 4 6 19 12 3 7 359 346 343 342 339 335 335 335 333 330 328 327 324 319 317 310 302
88 94 92 96 97 98 100 97 103 101 105 104 97 87 78 73 69 58 50 42 35 27 17 353 349 1 3 6 9 356 353 360 355 341 332 331 332 333 334 336 330 328 329 328 328 323 318 316 309
105 90 98 104 105 111 110 119 119 126 116 104 95 87 79 69 61 53 43 39 24 8 0 345 348 351 354 14 10 0 352 5 345 334 332 328 328 331 336 338 336 333 336 332 333 328 320 318 317
124 110 108 119 128 140 117 99 119 131 123 110 103 93 84 77 65 53 39 28 8 8 352 351 350 3 15 21 9 5 14 8 345 333 327 328 331 335 339 337 339 340 338 336 331 328 327 323 318
123 126 144 188 143 161 114 147 151 151 127 118 110 101 92 79 62 46 36 21 360 355 355 343 2 15 17 14 8 7 6 355 348 334 329 332 336 337 343 347 349 348 347 344 339 338 327 328 327
214 165 149 147 171 156 141 143 163 158 128 120 113 105 97 83 65 51 29 0 353 351 359 358 2 9 12 10 13 12 10 352 344 334 336 341 340 344 350 354 356 354 353 353 350 344 345 340 335
277 127 72 118 284 142 120 142 160 148 132 124 116 103 90 81 71 44 3 347 346 356 1 357 354 3 6 6 11 13 18 4 346 342 344 351 355 353 3 1 3 3 358 354 354 352 350 346 340
26 119 132 137 316 99 129 138 157 144 128 132 115 105 92 84 65 29 358 351 350 353 353 350 353 1 3 10 12 12 12 6 1 360 352 354 353 359 1 360 1 3 359 357 356 353 349 349 342
43 107 115 95 153 98 145 162 169 150 156 141 119 108 100 84 62 45 8 356 349 348 352 355 357 360 8 5 10 13 17 21 14 359 352 349 354 352 354 357 359 3 358 355 357 356 350 347 346
63 97 143 148 174 180 142 153 152 138 114 115 114 110 102 94 77 33 8 340 340 353 358 358 359 3 11 358 359 11 22 22 13 8 354 350 354 354 352 358 359 1 358 352 351 354 355 348 350
113 8 0 3 128 208 153 233 187 147 129 130 123 112 110 99 72 41 19 341 351 356 353 358 3 358 4 355 5 20 22 16 4 356 356 349 350 360 2 2 2 2 355 355 351 353 353 353 350
154 349 286 287 280 247 231 103 225 142 157 149 126 119 113 100 83 63 45 9 355 347 347 358 7 353 353 359 13 24 18 14 359 359 359 352 352 358 0 5 3 1 354 355 354 356 356 352 356
132 258 265 259 152 318 213 179 252 172 179 136 124 120 116 111 96 93 83 11 347 338 343 4 6 350 350 11 24 21 10 11 3 360 358 355 356 358 358 359 1 357 350 352 356 355 1 356 356
218 24 321 346 304 220 5 93 72 15 137 128 120 118 119 116 123 157 191 335 333 338 347 6 4 357 14 23 24 16 7 9 358 355 354 357 0 1 0 354 355 355 352 352 359 1 3 0 359
267 145 151 256 122 285 1 106 160 92 89 107 116 118 116 107 140 135 36 332 335 343 356 0 6 11 20 17 12 3 16 6 360 355 357 3 5 2 357 355 352 360 359 357 8 11 4 359 348
304 124 223 299 295 41 128 95 72 128 127 132 132 123 110 119 123 108 338 336 341 356 2 358 11 24 19 12 2 0 0 0 355 354 359 5 6 359 354 353 359 5 4 1 4 11 14 12 2
168 250 46 351 254 291 326 160 185 176 171 157 131 129 121 121 108 49 330 343 346 5 14 357 13 15 360 351 347 351 2 2 358 4 7 6 5 356 355 1 8 11 6 7 12 7 3 3 7
281 285 196 145 144 197 299 265 195 179 176 160 138 133 145 147 155 349 346 350 353 9 22 5 358 352 359 352 349 351 5 3 4 9 11 10 4 358 6 11 11 7 3 6 12 13 10 6 5
48 222 99 122 288 218 165 261 71 106 125 137 137 144 156 170 144 138 334 334 353 17 25 350 339 353 2 351 351 354 5 5 7 10 14 12 6 10 12 11 7 4 2 7 11 15 12 10 3